Weather History for Fairmont, MN

Change the Weather History Date:

Sunday, February 3, 2013

  Actual Average Record
Temperature  
Mean Temperature 17 °F -  
Max Temperature 24 °F 21 °F 51 °F (2005)
Min Temperature 10 °F 5 °F -23 °F (1970)
Degree Days  
Heating Degree Days 48    
Moisture  
Dew Point 10 °F    
Average Humidity 66    
Maximum Humidity 80    
Minimum Humidity 54    
Precipitation  
Precipitation 0.00 in - - ()
Sea Level Pressure  
Sea Level Pressure 30.00 in    
Wind  
Wind Speed 14 mph (NNW)    
Max Wind Speed 28 mph    
Max Gust Speed 38 mph    
Visibility 10 miles    
Events      
Averages and records for this station are not official NWS values.
T = Trace of Precipitation, MM = Missing Value Source: NWS Daily Summary

Daily Weather History Graph

Daily Weather History Graph

Search for Another Location

Airport:

Trip Planner

Search our weather history database for the weather conditions in past years. The results will help you decide how hot, cold, wet, or windy it might be!

Date:

Astronomy

Feb. 03, 2013 Rise Set
Actual Time 7:31 AM CST 5:32 PM CST
Civil Twilight 7:01 AM CST 6:02 PM CST
Nautical Twilight 6:27 AM CST 6:36 PM CST
Astronomical Twilight 5:53 AM CST 7:10 PM CST
Moon 1:00 AM CST (2/3) 11:08 AM CST (2/3)
Length of Visible Light 11h 01m
Length of Day
10h 00m
Waning Gibbous, 48% of the Moon is Illuminated
Feb 3
Waning Gibbous
Feb 10
New
Feb 17
First Quarter
Feb 25
Full
Mar 4
Last Quarter

Hourly Weather History & Observations

Time (CST) Temp. Windchill Dew Point Humidity Pressure Visibility Wind Dir Wind Speed Gust Speed Precip Events Conditions
12:15 AM 19.4 °F 2.8 °F 10.4 °F 68% 30.00 in 6.0 mi NW 21.9 mph 28.8 mph N/A   Overcast
12:35 AM 19.4 °F 2.8 °F 10.4 °F 68% 30.01 in 9.0 mi NW 21.9 mph 31.1 mph N/A   Mostly Cloudy
12:55 AM 19.4 °F 1.8 °F 10.4 °F 68% 30.01 in 9.0 mi NW 25.3 mph 31.1 mph N/A   Mostly Cloudy
1:15 AM 19.4 °F 1.1 °F 10.4 °F 68% 30.02 in 6.0 mi NW 27.6 mph 38.0 mph N/A   Overcast
1:35 AM 19.4 °F 1.8 °F 10.4 °F 68% 30.04 in 6.0 mi NW 25.3 mph 35.7 mph N/A   Overcast
1:55 AM 19.4 °F 2.1 °F 10.4 °F 68% 30.04 in 8.0 mi NW 24.2 mph 34.5 mph N/A   Overcast
2:15 AM 19.4 °F 3.6 °F 10.4 °F 68% 30.05 in 8.0 mi NW 19.6 mph 28.8 mph N/A   Overcast
2:35 AM 19.4 °F 3.6 °F 10.4 °F 68% 30.05 in 5.0 mi NW 19.6 mph 26.5 mph N/A   Overcast
2:55 AM 17.6 °F 1.7 °F 10.4 °F 73% 30.06 in 10.0 mi NW 18.4 mph 27.6 mph N/A   Scattered Clouds
3:15 AM 17.6 °F 2.2 °F 8.6 °F 68% 30.06 in 10.0 mi NW 17.3 mph 21.9 mph N/A   Partly Cloudy
3:35 AM 17.6 °F 1.3 °F 8.6 °F 68% 30.06 in 10.0 mi NW 19.6 mph 25.3 mph N/A   Mostly Cloudy
3:55 AM 15.8 °F -0.2 °F 6.8 °F 68% 30.06 in 10.0 mi NW 17.3 mph - N/A   Scattered Clouds
4:15 AM 15.8 °F -1.9 °F 6.8 °F 68% 30.07 in 10.0 mi WNW 21.9 mph 28.8 mph N/A   Clear
4:35 AM 14.0 °F -3.0 °F 5.0 °F 67% 30.08 in 10.0 mi NW 18.4 mph 25.3 mph N/A   Clear
4:55 AM 14.0 °F -2.5 °F 5.0 °F 67% 30.08 in 10.0 mi NW 17.3 mph 28.8 mph N/A   Clear
5:15 AM 12.2 °F -4.3 °F 5.0 °F 73% 30.09 in 10.0 mi NW 16.1 mph - N/A   Clear
5:35 AM 12.2 °F -4.3 °F 5.0 °F 73% 30.09 in 10.0 mi NW 16.1 mph 20.7 mph N/A   Clear
5:55 AM 12.2 °F -3.1 °F 3.2 °F 67% 30.08 in 10.0 mi NW 13.8 mph - N/A   Partly Cloudy
6:15 AM 12.2 °F -3.7 °F 3.2 °F 67% 30.08 in 10.0 mi NW 15.0 mph - N/A   Partly Cloudy
6:35 AM 12.2 °F -2.5 °F 3.2 °F 67% 30.08 in 10.0 mi NW 12.7 mph - N/A   Clear
6:55 AM 12.2 °F 0.7 °F 3.2 °F 67% 30.08 in 10.0 mi NW 8.1 mph - N/A   Partly Cloudy
7:15 AM 10.4 °F -0.4 °F 3.2 °F 73% 30.09 in 10.0 mi NW 6.9 mph - N/A   Mostly Cloudy
7:35 AM 12.2 °F 4.3 °F 5.0 °F 73% 30.09 in 10.0 mi WNW 4.6 mph - N/A   Overcast
7:55 AM 12.2 °F 4.3 °F 6.8 °F 79% 30.09 in 10.0 mi WNW 4.6 mph - N/A   Overcast
8:15 AM 14.0 °F 8.2 °F 6.8 °F 73% 30.09 in 10.0 mi WNW 3.5 mph - N/A   Overcast
8:35 AM 14.0 °F 6.5 °F 6.8 °F 73% 30.08 in 10.0 mi WNW 4.6 mph - N/A   Mostly Cloudy
8:55 AM 15.8 °F 8.6 °F 6.8 °F 68% 30.08 in 10.0 mi NW 4.6 mph - N/A   Mostly Cloudy
9:15 AM 17.6 °F 7.3 °F 8.6 °F 68% 30.09 in 10.0 mi WNW 8.1 mph - N/A   Overcast
9:35 AM 17.6 °F 6.4 °F 8.6 °F 68% 30.09 in 10.0 mi NW 9.2 mph - N/A   Overcast
9:55 AM 17.6 °F 6.4 °F 8.6 °F 68% 30.09 in 10.0 mi NW 9.2 mph - N/A   Overcast
10:15 AM 17.6 °F 7.3 °F 8.6 °F 68% 30.09 in 10.0 mi WNW 8.1 mph - N/A   Overcast
10:35 AM 19.4 °F 8.6 °F 8.6 °F 63% 30.09 in 10.0 mi NW 9.2 mph - N/A   Overcast
10:55 AM 19.4 °F 9.5 °F 8.6 °F 63% 30.09 in 10.0 mi NW 8.1 mph - N/A   Overcast
11:15 AM 19.4 °F 12.8 °F 8.6 °F 63% 30.08 in 10.0 mi WNW 4.6 mph - N/A   Overcast
11:35 AM 19.4 °F 11.5 °F 8.6 °F 63% 30.09 in 10.0 mi NW 5.8 mph - N/A   Overcast
11:55 AM 19.4 °F 11.5 °F 8.6 °F 63% 30.08 in 10.0 mi WNW 5.8 mph - N/A   Overcast
12:15 PM 19.4 °F 14.3 °F 8.6 °F 63% 30.06 in 10.0 mi West 3.5 mph - N/A   Overcast
12:35 PM 21.2 °F - 8.6 °F 58% 30.06 in 10.0 mi Calm Calm - N/A   Overcast
12:55 PM 21.2 °F 16.4 °F 8.6 °F 58% 30.05 in 10.0 mi West 3.5 mph - N/A   Overcast
1:15 PM 21.2 °F 16.4 °F 8.6 °F 58% 30.02 in 10.0 mi South 3.5 mph - N/A   Overcast
1:35 PM 21.2 °F - 10.4 °F 63% 30.01 in 10.0 mi Calm Calm - N/A   Overcast
1:55 PM 21.2 °F 14.9 °F 10.4 °F 63% 30.00 in 10.0 mi SSE 4.6 mph - N/A   Overcast
2:15 PM 23.0 °F 18.4 °F 10.4 °F 59% 29.99 in 10.0 mi South 3.5 mph - N/A   Mostly Cloudy
2:35 PM 23.0 °F 15.8 °F 10.4 °F 59% 29.98 in 10.0 mi SE 5.8 mph - N/A   Mostly Cloudy
2:55 PM 24.8 °F 17.9 °F 12.2 °F 59% 29.98 in 10.0 mi SSE 5.8 mph - N/A   Scattered Clouds
3:15 PM 24.8 °F 17.9 °F 10.4 °F 54% 29.97 in 10.0 mi ESE 5.8 mph - N/A   Mostly Cloudy
3:35 PM 24.8 °F 16.1 °F 10.4 °F 54% 29.96 in 10.0 mi SE 8.1 mph - N/A   Overcast
3:55 PM 24.8 °F 15.3 °F 12.2 °F 59% 29.96 in 10.0 mi SE 9.2 mph - N/A   Overcast
4:15 PM 24.8 °F 16.1 °F 12.2 °F 59% 29.95 in 10.0 mi SE 8.1 mph - N/A   Overcast
4:35 PM 24.8 °F 16.9 °F 12.2 °F 59% 29.94 in 10.0 mi SE 6.9 mph - N/A   Overcast
4:55 PM 24.8 °F 15.3 °F 12.2 °F 59% 29.93 in 10.0 mi ESE 9.2 mph - N/A   Overcast
5:15 PM 24.8 °F 16.1 °F 12.2 °F 59% 29.93 in 10.0 mi ESE 8.1 mph - N/A   Overcast
5:35 PM 24.8 °F 15.3 °F 14.0 °F 64% 29.92 in 10.0 mi East 9.2 mph - N/A   Overcast
5:55 PM 24.8 °F 16.1 °F 14.0 °F 64% 29.91 in 10.0 mi East 8.1 mph - N/A   Overcast
6:15 PM 24.8 °F 15.3 °F 12.2 °F 59% 29.91 in 10.0 mi East 9.2 mph - N/A   Overcast
6:35 PM 24.8 °F 16.9 °F 14.0 °F 64% 29.90 in 10.0 mi East 6.9 mph - N/A   Overcast
6:55 PM 24.8 °F 16.1 °F 14.0 °F 64% 29.90 in 10.0 mi East 8.1 mph - N/A   Overcast
7:15 PM 24.8 °F 16.1 °F 14.0 °F 64% 29.89 in 10.0 mi East 8.1 mph - N/A   Overcast
7:35 PM 24.8 °F 16.1 °F 14.0 °F 64% 29.88 in 10.0 mi East 8.1 mph - N/A   Overcast
7:55 PM 24.8 °F 15.3 °F 14.0 °F 64% 29.88 in 10.0 mi East 9.2 mph - N/A   Overcast
8:15 PM 24.8 °F 14.6 °F 14.0 °F 64% 29.88 in 10.0 mi East 10.4 mph - N/A   Overcast
8:35 PM 24.8 °F 14.6 °F 14.0 °F 64% 29.87 in 10.0 mi ENE 10.4 mph - N/A   Overcast
8:55 PM 24.8 °F 15.3 °F 15.8 °F 69% 29.86 in 10.0 mi East 9.2 mph - N/A   Overcast
9:15 PM 24.8 °F 14.6 °F 15.8 °F 69% 29.86 in 10.0 mi ENE 10.4 mph - N/A   Overcast
9:35 PM 24.8 °F 15.3 °F 15.8 °F 69% 29.86 in 10.0 mi ENE 9.2 mph - N/A   Overcast
9:55 PM 23.0 °F 11.7 °F 15.8 °F 74% 29.85 in 10.0 mi ENE 11.5 mph - N/A   Mostly Cloudy
10:15 PM 21.2 °F 10.1 °F 15.8 °F 80% 29.84 in 10.0 mi ENE 10.4 mph - N/A   Scattered Clouds
10:35 PM 21.2 °F 10.1 °F 15.8 °F 80% 29.85 in 10.0 mi NE 10.4 mph - N/A   Mostly Cloudy
10:55 PM 21.2 °F 8.3 °F 14.0 °F 74% 29.86 in 7.0 mi NNE 13.8 mph - N/A   Overcast
11:15 PM 21.2 °F 9.5 °F 14.0 °F 74% 29.86 in 9.0 mi NNE 11.5 mph - N/A   Overcast
11:35 PM 21.2 °F 7.8 °F 12.2 °F 68% 29.86 in 10.0 mi NNE 15.0 mph - N/A   Overcast
11:55 PM 19.4 °F 5.0 °F 12.2 °F 74% 29.85 in 10.0 mi NNE 16.1 mph - N/A   Overcast